Preview of NWS' New Version of Forecast
This preview is not operational and should not be used for support decisions.

Regional Weather Roundup (RWR)

Issued by National Weather Service (NWS)

                            
573 
ASUS42 KTBW 261217
RWRFL 
FLORIDA REGIONAL WEATHER ROUNDUP
NATIONAL WEATHER SERVICE TAMPA BAY RUSKIN FL
800 AM EDT TUE MAR 26 2019

NOTE: "FAIR" INDICATES FEW OR NO CLOUDS BELOW 12,000 FEET WITH NO
SIGNIFICANT WEATHER AND/OR OBSTRUCTIONS TO VISIBILITY.

FLZ001>010-012>015-112-114-115-261300-
PANHANDLE FLORIDA
  
CITY           SKY/WX    TMP DP  RH WIND       PRES   REMARKS
PENSACOLA      FAIR      55  51  86 N13       30.11R                  
PENSACOLA NAS  FAIR      55  51  86 N12       30.10R                  
MILTON NAS     FAIR      52  50  93 N7        30.11R                  
CRESTVIEW      FAIR      53  50  89 N8        30.11R                  
DUKE FIELD     FAIR      53  52  97 NW9       30.08R                  
VALPARAISO     FAIR      54  51  89 N10       30.08R                  
MARY ESTHER    CLEAR     55  50  84 NW9       30.08R                  
PANAMA CITY    FAIR      55  52  89 NW8       30.05R                  
TYNDALL AFB    FAIR      59  55  86 N8        30.05R                  
APALACHICOLA   FAIR      58  55  90 NW7       30.04R                  

STATION/POSITION SKY/WX   TEMP    WIND        PRES    WAVE   SWELL
                          AIR SEA DIR/SP/G            HT/PER HT/PER
                          (F)     (DEG/KT/KT) (MB)    (FT/S) (FT/S)
30.1N   87.6W              60     350/ 17/ 21 1019.8R   2/ 3
29.2N   88.2W                     360/ 17/ 21 1020.3R   4/ 4   2/ 7
PANAMA CITY BEAC           57 66  350/ 10/ 14 1018.2R
TOWER C                    65     340/ 16/ 17 1017.1R

$$
FLZ011-016>038-118-127-128-134-139-239-261300-
NORTH FLORIDA
  
CITY           SKY/WX    TMP DP  RH WIND       PRES   REMARKS
MARIANNA       FAIR      55  55 100 NW6       30.05R                  
TALLAHASSEE    FOG       51  51 100 CALM      30.03R VSB 1            
PERRY          FOG       55  54  97 CALM      30.03R VSB<1/4          
LIVE OAK       FOG       57  57 100 CALM      30.01S VSB 0            
CROSS CITY     FOG       56  56  99 CALM      30.03R VSB<1/4          
LAKE CITY      CLOUDY    59  59 100 W6        30.02R FOG              
GAINESVILLE    FAIR      63  60  90 W7        30.04S FOG              
WILLISTON        N/A    N/A N/A N/A MISG        N/A                   
PALATKA        FAIR     N/A N/A N/A W5        30.01S FOG              
MAYPORT NAS    FAIR      61  58  90 W7        29.99R                  
JACKSONVILLE   FAIR      57  56  96 W7        29.99R                  
JAX NAS        FAIR      61  57  87 W8        30.01R                  
JAX CECIL      FOG      N/A N/A N/A VRB5      30.00R VSB 1            
FERNANDINA BEA FAIR      58  57  96 SW6       29.99R                  
ST AUGUSTINE   FAIR      61  59  93 W9        30.01R                  
PALM COAST     CLEAR     61  57  88 CALM      30.01R                  

STATION/POSITION SKY/WX   TEMP    WIND        PRES    WAVE   SWELL
                          AIR SEA DIR/SP/G            HT/PER HT/PER
                          (F)     (DEG/KT/KT) (MB)    (FT/S) (FT/S)
SHELL POINT      NOT AVBL
KEATON BEACH               64      CALM  /  1 1017.0R
CEDAR KEY                  67     290/  6/  8 1016.6R
FERNANDINA                 60 66  250/  5/  8 1016.0R
30.7N   81.3W                 64                N/A
MAYPORT                    61 66  260/  6/  7 1015.5R
31.4N   80.9W              61 62  290/ 14/ 16 1014.7R   2/ 3
ST AUGUSTINE               61 63  270/  6/  8 1016.1R

$$
FLZ040-043>046-052-053-057-058-063-144-261300-
INTERIOR CENTRAL FLORIDA
  
CITY           SKY/WX    TMP DP  RH WIND       PRES   REMARKS
OCALA          FAIR      57  57 100 CALM      30.03R FOG              
LEESBURG       FAIR      61  60  97 W5        30.04R                  
SANFORD        FAIR      63  61  93 W6        30.03R                  
ORLANDO EXEC   FAIR      65  62  90 W7        30.03R                  
ORLANDO INTL   FAIR      65  61  87 NW6       30.03R                  
KISSIMMEE      FAIR      66  64  93 NW8       30.04R                  
WINTER HAVEN   FAIR      66  65  96 NW6       30.04S                  
LAKELAND       MOCLDY    64  64 100 NW5       30.04S                  
BARTOW         PTCLDY    66  64  94 NW7       30.02S                  
SEBRING        FOG       64  64  99 NW5       30.03S VSB 1            
OKEECHOBEE     FAIR      59  57  94 CALM      30.03R                  

$$
FLZ041-047-054-059-064-141-147-261300-
EAST CENTRAL FLORIDA
  
CITY           SKY/WX    TMP DP  RH WIND       PRES   REMARKS
ORMOND BEACH   CLEAR     59  59 100 SW5       30.01R                  
DAYTONA BEACH  FAIR      61  60  97 W9        30.01S                  
DELAND         FAIR      59  57  94 CALM      30.02R                  
NEW SMYRNA BEA CLEAR     63  57  82 W7        30.02S                  
JFK SPACE CTR  FAIR     N/A N/A N/A NW6         N/A                   
TITUSVILLE     CLEAR     64  64 100 NW7       30.02S                  
CAPE CANAVERAL FAIR      65  60  82 NW9       30.00R                  
PATRICK AFB    FAIR      66  66 100 W9        30.01R                  
MELBOURNE      FAIR      65  63  93 W9        30.02R FOG              
VERO BEACH     MOCLDY    63  62  97 W6        30.03R FOG              
FT PIERCE      FAIR      61  59  93 CALM      30.02R                  
STUART         PTCLDY    64  61  88 CALM      30.03R                  

STATION/POSITION SKY/WX   TEMP    WIND        PRES    WAVE   SWELL
                          AIR SEA DIR/SP/G            HT/PER HT/PER
                          (F)     (DEG/KT/KT) (MB)    (FT/S) (FT/S)
28.5N   80.2W              70     310/ 17/ 19 1016.2R   3/ 4   2/ 7
28.9N   78.5W              71 74  300/ 21/ 29 1015.6R   4/ 5   2/ 8
TRIDENT PIER               66 70  290/  9/ 12 1017.1S
28.4N   80.5W                 69                N/A     2/ 6
27.5N   80.2W                 72                N/A     2/ 9

$$
FLZ050-056-061-142-242-148-248-149-249-151-251-155-255-
160-260-261300-
WEST CENTRAL FLORIDA
  
CITY           SKY/WX    TMP DP  RH WIND       PRES   REMARKS
CRYSTAL RIVER  FAIR      54  52  94 CALM      30.04R                  
INVERNESS      FAIR      54  54 100 CALM      30.04S FOG              
BROOKSVILLE    MOCLDY    60  59  96 CALM      30.05R FOG              
CLEARWATER AIR FAIR      64  63  94 NW6       30.04R                  
ST PETE CLEARW FAIR      66  64  93 NW7       30.04R                  
TAMPA INTL     FAIR      67  65  93 NW5       30.04S                  
TAMPA EXEC     FOG       61  59  94 CALM      30.04S VSB<1/4          
PLANT CITY     CLOUDY    68  66  94 NW5       30.06R FOG              
MACDILL AFB    FAIR      67  64  87 NW5       30.03S                  
PETER O KNIGHT FAIR     N/A N/A N/A NW3       30.04S                  
ST PETERSBURG  FAIR      69  66  90 N7        30.02R                  
SARASOTA       FAIR      68  66  93 NW3       30.02S                  
VENICE         MOCLDY    70  68  94 NE3       30.04S                  

STATION/POSITION SKY/WX   TEMP    WIND        PRES    WAVE   SWELL
                          AIR SEA DIR/SP/G            HT/PER HT/PER
                          (F)     (DEG/KT/KT) (MB)    (FT/S) (FT/S)
27.3N   84.2W                 73                N/A     2/ 3
CLEARWATER BEACH           69 72  320/  9/ 10 1017.2R
MIDDLE TAMPA BAY           69     340/  8/ 10 1017.1S
VENICE           NOT AVBL

$$
FLZ066-069-070-075>078-162-262-165-265-261300-
SOUTHWEST FLORIDA AND KEYS
  
CITY           SKY/WX    TMP DP  RH WIND       PRES   REMARKS
PUNTA GORDA    MOCLDY    66  64  93 N5        30.04F FOG              
FT MYERS       FAIR      65  63  93 CALM      30.03R                  
SOUTHWEST INTL FAIR      64  61  90 CALM      30.04R                  
NAPLES         FAIR      66  64  93 CALM      30.03S                  
MARCO ISLAND   FAIR      64  62  93 SE3       30.04S                  
IMMOKALEE      FAIR      61  59  94 CALM      30.02S                  
MARATHON       FAIR      76  66  71 N7        30.02R                  
KEY WEST NAS   FAIR      75  70  84 N8        30.03R                  
KEY WEST INTL  FAIR      74  71  91 N6        30.04R                  

STATION/POSITION SKY/WX   TEMP    WIND        PRES    WAVE   SWELL
                          AIR SEA DIR/SP/G            HT/PER HT/PER
                          (F)     (DEG/KT/KT) (MB)    (FT/S) (FT/S)
NAPLES                     68 74  100/  3/  4 1016.8S
DRY TORTUGAS               75      10/  4/  4 1017.1R
SAND KEY                   74                 1017.0R
SOMBRERO KEY               74                 1016.2R

$$
FLZ067-068-071>074-168-172>174-261300-
SOUTHEAST FLORIDA 
  
CITY           SKY/WX    TMP DP  RH WIND       PRES   REMARKS
W PALM BEACH   MOCLDY    67  63  87 NW6       30.02S                  
BOCA RATON     CLEAR     68  68 100 NW3       30.02R                  
FT LAUDER-EXEC FAIR      68  66  93 CALM      30.02R                  
FT LAUDERDALE  FAIR      68  65  90 NW6       30.01R                  
POMPANO BEACH  FAIR      68  66  93 CALM      30.02R FOG              
PEMBROKE PINES FAIR      66  64  93 NW7       30.03R                  
OPA LOCKA      FAIR      68  64  87 NW7       30.03R                  
MIAMI          FAIR      68  63  84 NW3       30.03R                  
WEST KENDALL   FAIR      64  62  93 W5        30.02R                  
HOMESTEAD      FAIR      66  62  89 W5        30.01R                  

STATION/POSITION SKY/WX   TEMP    WIND        PRES    WAVE   SWELL
                          AIR SEA DIR/SP/G            HT/PER HT/PER
                          (F)     (DEG/KT/KT) (MB)    (FT/S) (FT/S)
PORT EVERGLADES            70     280/  7/  9 1015.7
VIRGINIA KEY               71 76  270/  5/  7 1015.5R
LAKE WORTH                 69 77  320/  6/  8 1017.4R
SETTLEMENT POINT           76     270/ 13/ 15 1016.1R

$$